RH
20 24 44 52 53 62 41 31 35 23 24 29 27 29 32 33 31 30 33 32 32 27 22 21 25 30 31 33 29 35 44 49 45 38 39 27 20 16 14 15 16 28 44 66 75 91 100 92 102 103 99 101 100 100 101 99 100 100 99 100 97 90 79 88 101 100 100 100 101 94 87 87 88 87 85 85 89 86 91 99 71 59 72 74 79 81 78 73 75 85 88 86 80 73 70 67 66
19 18 29 49 55 62 55 50 49 34 22 23 25 25 28 32 33 32 34 37 37 37 30 24 26 31 34 36 33 44 46 38 38 38 39 32 22 18 20 22 21 22 32 59 76 86 95 101 105 101 100 100 100 100 100 101 100 99 100 99 99 95 81 85 101 102 99 98 100 97 91 91 94 91 89 89 85 80 89 89 66 69 84 90 92 83 73 68 68 72 76 77 76 74 71 69 71
16 17 19 33 48 59 64 62 61 56 33 17 22 23 26 30 34 36 34 39 41 45 42 31 28 31 36 38 37 42 40 33 35 37 38 36 24 21 26 28 29 27 28 37 45 63 87 105 105 100 102 99 101 100 100 101 99 100 99 99 101 98 93 91 88 89 92 89 86 83 86 92 92 86 86 88 83 81 88 82 69 77 91 97 88 73 68 68 68 66 67 69 70 72 72 73 74
15 16 17 21 32 48 59 64 62 64 42 18 22 21 25 30 35 42 38 40 45 52 53 44 36 35 39 40 40 38 35 32 32 37 39 37 29 24 27 30 30 28 32 24 23 50 75 96 105 102 103 99 100 100 101 100 99 101 98 102 100 92 95 85 65 61 64 67 78 88 87 76 69 74 85 89 86 83 82 79 79 90 98 91 74 66 68 66 62 59 61 66 71 74 75 75 75
17 14 16 17 21 34 48 62 60 60 47 24 28 24 23 30 33 44 46 43 47 58 59 55 50 42 43 43 41 38 37 36 31 35 38 37 33 27 26 28 31 33 34 22 29 60 74 91 105 102 102 100 100 100 100 101 99 100 100 103 93 79 74 62 53 58 63 73 85 79 62 53 57 69 82 88 84 78 81 87 94 100 90 74 65 64 62 56 55 60 67 71 75 76 77 78 78
17 15 14 15 17 24 33 54 56 56 52 32 36 34 28 32 32 39 49 51 50 59 59 59 60 48 45 46 41 39 39 36 31 33 36 37 35 29 27 29 37 45 41 23 36 73 79 84 99 101 103 100 100 100 101 102 100 101 102 97 86 73 66 63 73 87 88 81 66 51 48 51 58 70 81 84 80 81 92 100 100 88 70 62 60 57 53 56 63 69 70 71 74 77 79 79 79
16 16 15 13 15 19 23 41 49 51 52 40 45 47 40 41 39 37 44 55 54 55 56 56 60 51 46 47 41 42 42 35 30 31 34 36 37 30 27 31 39 51 51 31 39 80 85 77 93 102 101 101 101 99 100 101 100 104 96 82 76 73 75 86 98 97 80 58 45 45 54 58 67 79 84 82 82 86 90 89 81 67 58 56 53 53 59 68 73 70 68 72 77 79 80 79 74
16 16 15 14 13 15 16 26 39 47 51 48 52 51 47 49 49 45 42 50 55 53 53 52 55 51 47 48 44 45 45 38 31 29 32 34 37 34 29 30 38 50 54 42 40 77 95 82 90 100 99 102 104 100 100 102 103 104 90 73 73 79 89 100 101 85 60 42 42 48 55 74 90 89 83 82 79 71 66 62 58 55 53 52 54 64 78 81 73 68 71 78 82 83 82 74 64
15 15 14 13 13 13 14 17 27 42 50 52 54 50 47 51 51 50 47 47 52 54 54 52 51 47 47 51 48 49 49 44 34 28 29 33 37 38 31 27 34 45 52 53 51 76 92 74 70 87 95 94 100 104 103 103 100 94 83 76 81 89 98 104 100 82 56 36 37 45 55 77 89 84 82 77 66 59 54 50 49 52 50 54 70 87 90 78 68 73 81 87 88 84 74 61 49
16 16 15 13 13 13 13 14 21 38 52 51 50 47 44 50 53 51 52 50 49 53 56 53 48 43 45 53 52 53 56 50 39 29 27 31 37 39 35 27 29 39 48 54 65 84 92 74 59 72 88 90 99 103 97 94 86 79 75 79 88 93 101 103 101 92 62 33 33 44 52 62 69 73 74 68 65 63 56 49 50 50 51 68 90 92 78 68 74 85 92 93 84 70 57 46 36
16 16 15 14 14 13 13 12 16 34 53 54 47 46 42 45 50 53 56 55 52 51 56 54 47 44 45 52 54 55 58 55 45 33 29 31 36 40 39 33 26 31 41 50 62 79 99 99 79 80 91 95 101 92 86 86 75 72 74 81 86 93 105 101 100 98 62 31 32 41 49 52 55 60 62 63 60 56 53 52 51 48 59 83 91 77 69 76 89 95 92 81 65 54 43 34 29
16 16 15 14 14 13 12 11 12 25 48 57 51 47 44 44 45 52 58 58 57 52 55 56 47 46 49 51 55 56 57 57 51 40 34 33 37 40 42 40 32 27 33 44 49 57 86 102 96 97 98 102 97 81 88 90 77 76 81 86 87 93 105 101 101 94 54 31 35 39 43 44 46 50 52 55 56 64 72 72 69 70 82 92 84 74 80 91 97 94 77 58 48 41 31 30 35
15 15 15 13 13 12 13 13 11 16 35 48 51 51 46 46 47 48 56 59 61 59 56 57 49 49 54 52 54 57 57 58 53 47 40 38 41 41 40 42 41 32 29 37 42 44 57 75 96 102 96 105 96 81 95 97 86 84 85 87 87 89 95 98 101 92 60 35 36 37 39 40 41 44 52 64 80 92 91 86 88 92 97 92 82 82 91 97 93 77 55 46 40 33 35 42 50
14 14 14 14 13 12 13 13 12 18 30 36 38 48 52 49 47 46 54 59 61 65 62 57 52 51 56 56 54 55 59 60 54 50 47 43 42 41 36 37 44 43 35 31 37 45 46 54 84 103 100 103 97 91 95 95 95 88 81 80 80 78 80 91 95 95 76 43 38 41 41 41 42 52 70 87 98 95 84 81 87 94 95 87 85 90 98 93 74 55 46 41 35 41 51 55 70
13 13 14 13 13 12 13 13 13 17 28 42 41 43 56 53 45 45 50 55 57 66 67 57 51 51 56 58 56 54 56 60 55 50 53 50 45 44 35 29 39 48 48 39 32 39 49 51 63 87 99 99 98 103 100 91 88 78 68 65 70 75 79 91 96 101 85 51 44 47 49 49 56 73 85 95 94 85 79 82 92 99 93 88 94 99 93 74 56 49 45 42 48 61 60 67 87
13 13 13 12 13 11 13 14 13 15 23 52 60 41 50 55 46 47 46 48 52 62 67 58 49 48 52 56 57 55 53 57 56 52 56 57 49 46 38 27 28 38 50 52 43 35 41 51 54 66 79 83 86 94 102 94 81 69 59 53 53 67 88 97 98 102 84 58 50 50 61 64 70 87 91 91 88 83 79 86 100 99 92 97 101 92 73 56 53 51 47 56 69 70 64 75 80
13 13 13 12 13 11 13 13 14 30 37 47 50 29 37 53 48 48 47 45 48 55 62 57 48 45 47 51 56 56 52 54 55 54 57 61 55 48 42 33 26 25 34 48 56 50 40 42 51 61 62 64 70 76 86 88 77 59 51 50 46 63 94 101 99 102 90 77 66 59 73 78 77 88 91 85 84 83 81 92 103 96 97 102 91 71 55 53 58 53 57 74 78 73 69 70 62
11 12 13 12 12 11 12 13 11 27 39 36 31 19 28 47 50 52 50 47 47 50 55 55 48 44 43 46 54 56 54 53 54 56 57 60 59 53 48 43 38 30 24 32 48 58 56 46 43 55 61 62 69 74 73 75 74 59 52 53 55 78 98 100 98 97 97 97 90 82 87 92 90 96 97 87 85 85 85 98 102 97 98 87 70 55 51 59 59 58 75 84 76 70 60 58 65
10 10 11 12 12 12 10 13 12 14 21 23 24 18 20 36 49 54 52 49 48 48 48 51 51 46 42 45 53 56 55 54 54 55 57 60 61 59 54 49 49 44 34 28 34 45 57 61 53 48 56 68 81 83 72 76 89 85 81 74 72 92 101 99 96 93 97 100 102 99 88 87 94 101 97 85 82 81 90 101 96 89 76 63 58 52 58 63 58 72 88 81 63 55 50 56 70
10 9 10 11 11 12 11 12 13 13 14 16 19 17 15 26 40 51 54 51 50 51 47 46 53 51 45 46 51 56 57 55 55 56 57 59 60 62 59 55 53 54 53 45 38 36 39 52 62 59 55 64 82 92 83 83 96 100 100 92 88 96 100 100 97 97 99 99 102 91 71 71 81 88 84 76 74 82 99 98 81 67 56 60 62 58 66 60 65 89 85 64 47 43 52 58 61
9 9 9 10 10 11 12 13 13 13 14 14 16 17 16 17 25 37 45 50 51 51 52 49 54 58 52 49 51 56 59 57 56 57 58 59 59 60 59 58 56 55 63 66 57 46 38 35 44 60 64 62 69 84 91 88 87 97 103 100 99 101 101 100 100 101 99 101 97 71 58 67 74 76 73 73 82 99 103 79 61 57 62 74 70 67 68 58 78 92 65 49 44 46 58 60 62
8 9 9 9 10 10 10 12 13 12 13 14 15 15 17 17 17 19 27 56 73 62 58 58 58 63 61 55 54 56 61 62 60 57 58 59 58 59 58 56 56 55 61 72 71 61 52 41 29 38 57 68 68 69 81 88 85 93 104 104 97 88 91 98 102 101 99 103 87 59 58 68 73 77 81 89 102 106 84 61 61 70 82 83 73 71 61 63 90 80 48 47 52 60 64 60 66
8 8 9 10 9 9 10 12 12 12 12 14 16 14 16 17 18 14 13 43 70 63 60 64 63 67 69 64 61 60 61 65 65 58 56 58 59 58 57 55 54 56 58 64 72 71 65 57 38 25 35 57 73 73 69 78 90 95 100 106 96 81 87 98 101 101 102 97 75 61 67 75 85 91 94 97 98 85 65 65 79 89 94 79 66 64 57 76 93 65 42 50 58 66 67 62 63
8 8 8 10 11 10 10 12 12 11 11 13 16 15 15 16 17 17 12 17 31 37 46 62 69 68 70 70 67 65 63 66 69 62 54 56 61 58 56 58 56 57 60 61 67 75 73 68 53 32 25 36 58 78 76 71 84 97 98 103 101 95 97 100 101 101 98 84 68 69 81 92 102 101 92 81 72 63 61 77 90 92 84 65 58 58 63 84 86 63 56 65 72 75 71 69 64
7 8 9 11 12 11 11 12 11 11 11 11 14 15 15 16 16 15 15 14 17 22 30 54 72 70 70 70 68 69 67 66 71 67 56 54 60 60 56 58 58 58 62 64 68 77 77 74 68 48 29 25 35 57 78 78 78 94 102 99 98 100 101 101 101 99 91 76 67 77 94 103 105 100 82 60 53 56 67 82 84 74 61 55 54 55 70 85 79 71 74 79 83 82 79 80 75
7 7 9 11 12 11 11 11 11 11 11 10 12 14 15 16 17 16 16 15 16 19 19 38 66 76 75 68 64 70 72 71 73 71 60 53 57 61 59 57 57 58 62 65 72 79 81 79 77 69 43 25 27 32 54 77 81 90 101 99 98 100 101 101 101 98 83 68 68 84 103 106 104 98 70 45 47 59 72 76 67 57 55 55 53 60 78 81 75 77 82 86 91 90 83 86 84
9 10 9 9 11 11 11 10 10 10 10 11 11 13 13 13 15 16 17 16 15 18 17 24 51 78 80 67 63 70 75 75 76 77 67 55 56 61 61 59 58 59 60 64 71 77 84 85 82 85 62 26 25 26 30 58 79 89 95 100 101 102 104 104 101 90 69 62 74 91 102 105 106 89 53 38 50 63 71 65 57 57 57 54 54 64 73 71 75 84 89 92 95 92 83 82 78
10 12 11 9 10 11 10 9 9 10 11 12 11 12 13 17 21 17 17 20 15 16 18 14 30 69 85 70 65 71 78 81 81 81 73 60 58 63 63 62 61 60 59 61 69 73 81 90 87 91 74 32 21 26 24 41 70 86 92 101 106 106 109 105 89 68 57 71 89 94 95 102 104 73 40 41 56 64 65 59 57 62 61 56 58 63 68 78 90 98 100 94 88 83 80 75 66
9 11 9 7 11 13 11 8 8 10 11 11 12 12 12 20 27 22 20 21 19 17 18 18 26 56 80 77 73 73 78 86 86 83 76 66 61 63 63 63 63 58 57 58 64 72 78 86 90 90 75 37 21 27 28 38 61 82 93 101 107 108 109 97 71 52 57 82 100 93 87 101 96 57 39 51 57 59 58 58 64 70 71 70 73 82 91 100 107 106 96 81 74 70 70 66 58
8 8 6 13 28 25 12 8 8 9 10 11 12 14 12 14 19 19 21 20 23 21 18 33 44 48 56 64 70 74 81 89 88 85 79 70 66 65 63 64 64 56 55 58 59 68 75 82 88 90 75 38 24 35 38 43 57 77 90 91 97 103 103 87 60 49 63 89 106 92 83 96 81 47 46 55 53 56 58 63 72 79 86 88 92 98 97 94 90 84 70 60 59 60 62 60 52
10 9 6 16 37 42 26 11 8 7 9 10 10 13 13 13 14 14 18 20 22 22 19 38 58 60 60 65 68 69 79 90 89 86 81 72 66 66 64 63 64 54 51 56 58 64 71 79 83 88 79 39 24 44 50 53 58 70 83 82 89 101 100 88 67 63 81 100 107 93 87 86 61 42 50 54 54 58 62 70 81 88 92 87 83 81 74 67 62 56 53 52 53 55 56 48 39
11 12 9 9 21 41 46 30 17 11 9 11 9 11 11 12 15 12 14 18 18 20 19 23 37 51 61 72 72 65 73 88 90 87 82 75 67 64 64 64 63 55 49 51 56 63 68 74 78 85 82 41 23 49 62 65 65 68 82 86 94 102 98 95 89 89 100 105 104 92 79 62 44 45 52 54 57 61 68 78 82 82 77 73 76 79 76 72 66 58 49 42 40 41 38 33 32
12 12 11 12 14 27 44 40 26 15 9 11 9 9 11 10 16 15 11 15 15 18 19 18 21 24 28 38 43 43 57 77 90 92 84 76 70 63 63 67 63 53 47 48 52 61 68 72 75 82 78 40 23 51 67 73 76 71 76 89 99 99 98 101 97 100 104 101 100 83 56 42 42 50 54 57 62 65 72 74 71 70 73 83 94 97 95 89 83 75 54 33 28 27 27 30 34
13 12 10 13 15 17 33 42 32 17 8 13 15 11 10 13 25 24 11 12 15 14 15 16 16 17 20 25 23 20 33 56 76 89 86 77 71 60 60 70 66 51 44 44 46 56 68 72 73 79 69 35 23 50 65 68 79 81 79 90 101 100 101 97 83 89 98 93 86 66 43 42 48 53 59 62 65 67 69 66 66 73 84 97 102 99 95 90 88 85 63 39 32 30 28 30 33
10 11 10 10 12 10 18 29 27 25 16 10 15 14 11 14 22 20 11 12 15 15 16 17 16 16 19 18 15 24 50 68 66 75 79 68 64 57 58 71 67 53 45 42 42 49 63 69 72 77 64 41 29 43 59 59 67 81 84 84 91 100 99 82 69 80 87 74 65 50 39 47 55 60 64 63 65 67 65 64 68 80 89 89 82 74 66 62 61 57 45 35 34 32 28 30 34
9 9 10 8 11 9 10 11 14 32 32 12 9 10 11 15 15 14 15 13 12 14 13 16 17 14 21 26 36 67 97 88 64 79 86 67 70 65 55 68 67 54 49 45 37 40 56 63 70 74 67 60 40 31 50 55 53 69 80 77 81 95 90 74 78 87 73 52 46 43 44 57 65 65 60 59 65 65 62 65 72 77 75 67 57 49 42 35 31 25 23 23 24 26 26 30 34
10 10 10 9 10 8 10 10 8 21 29 32 38 25 8 13 24 29 30 23 18 21 25 38 35 22 37 58 72 90 88 58 46 81 87 63 72 67 49 62 66 56 55 50 35 33 50 60 66 72 76 77 45 23 41 48 50 63 74 80 85 89 85 83 87 75 51 37 40 48 57 68 68 59 54 57 62 60 62 67 68 64 58 57 55 49 42 33 27 23 19 18 17 20 23 25 28
13 11 10 10 11 9 10 11 10 10 13 28 43 37 24 26 36 42 48 47 38 32 39 60 57 31 35 53 61 60 46 32 34 56 64 55 56 46 44 60 63 60 62 57 41 34 50 58 59 66 80 83 43 18 36 43 49 63 69 76 80 82 83 82 68 44 33 35 45 57 64 68 60 51 51 55 57 57 62 63 57 55 57 60 56 50 46 41 37 31 25 23 20 20 20 19 21
17 14 12 11 10 11 11 10 11 10 9 13 14 24 39 43 47 57 73 79 70 57 49 53 51 31 24 32 39 37 35 41 45 53 60 59 49 33 43 60 57 64 70 67 55 44 52 56 54 59 76 89 60 28 32 40 48 57 61 62 66 75 73 59 40 28 33 41 49 58 59 55 48 46 51 52 53 55 57 55 52 58 63 64 58 51 50 48 49 49 45 41 33 30 27 23 29
21 18 15 13 11 11 12 11 11 11 10 12 8 12 24 28 40 68 96 102 92 85 72 60 52 41 35 37 35 27 30 39 51 77 80 59 48 39 48 60 59 72 78 72 64 52 49 52 58 58 65 91 92 61 34 32 47 52 51 53 55 58 48 34 29 30 38 45 50 51 46 42 39 43 49 48 50 52 51 49 52 62 70 69 63 58 63 73 80 82 79 74 62 49 37 35 44
23 23 19 17 14 12 12 11 12 12 11 12 13 11 12 16 26 52 87 103 99 93 87 77 59 44 42 47 47 30 37 58 56 65 68 54 52 46 47 59 65 77 79 73 66 49 39 54 77 73 64 86 104 93 52 24 36 46 42 44 40 35 31 29 34 37 43 47 47 43 37 36 36 40 43 43 45 46 46 47 53 64 71 68 63 66 80 95 104 103 101 101 93 73 53 49 52
24 24 23 21 18 14 13 12 12 13 13 12 13 13 13 18 23 32 52 79 102 101 94 89 66 51 49 46 48 33 41 82 78 48 44 51 51 45 50 59 63 68 70 75 71 53 43 59 88 89 79 88 97 102 74 26 23 37 35 33 28 27 29 31 36 38 41 44 44 43 39 36 36 37 38 38 40 41 42 46 53 60 61 59 62 73 85 93 100 103 101 97 85 68 55 53 56
25 25 24 24 22 18 15 14 14 13 14 13 13 14 12 14 18 24 32 54 90 103 100 91 60 56 65 48 48 52 49 71 73 48 51 68 60 48 54 58 60 66 73 80 68 57 63 69 86 95 91 89 89 103 88 32 13 24 25 24 25 29 36 47 52 38 31 37 41 41 39 37 36 37 36 36 36 37 39 43 49 53 52 54 61 71 81 86 89 88 83 74 60 51 47 49 53
27 26 25 24 23 23 19 16 15 13 15 15 14 15 14 20 23 18 21 41 75 100 106 89 58 66 88 69 59 78 83 77 67 48 48 76 79 58 54 58 65 69 71 76 62 57 70 71 79 88 82 80 88 106 89 34 10 16 16 19 24 28 39 59 60 36 26 33 37 36 35 34 36 38 38 37 35 34 36 39 45 49 48 51 58 65 74 80 79 73 67 62 54 52 50 50 51
27 27 26 25 24 25 23 20 17 15 17 17 17 16 12 31 51 34 14 23 55 91 105 79 52 68 99 98 76 75 93 97 91 72 48 60 75 59 52 60 70 71 64 66 61 51 49 52 74 86 76 78 97 104 72 24 11 14 14 18 23 27 31 41 41 30 29 31 31 33 31 31 34 37 39 37 35 33 33 36 41 47 48 48 53 59 66 70 70 66 62 63 63 64 61 57 56
26 27 27 27 25 25 24 24 21 17 19 19 20 21 13 26 61 64 37 19 25 61 95 77 40 44 80 107 89 60 74 92 100 98 66 46 51 48 46 53 66 74 66 56 54 56 50 50 80 94 79 81 100 93 44 11 15 16 16 20 21 28 30 30 31 28 30 28 29 31 28 31 32 33 35 35 34 32 31 35 40 45 46 47 51 55 60 62 62 61 60 62 66 69 68 61 57
25 25 26 27 26 26 25 26 25 20 21 22 19 20 19 17 41 78 82 56 30 33 66 73 47 36 59 98 99 60 51 68 89 102 79 49 40 35 35 44 60 68 56 45 56 76 66 53 72 81 73 81 102 93 38 7 19 19 19 22 19 27 30 28 29 25 26 26 28 30 27 30 31 29 32 31 31 32 30 33 38 43 46 48 52 54 56 56 56 60 64 62 60 60 60 59 57
26 25 25 26 27 28 26 25 27 26 22 22 20 18 23 16 22 66 99 94 69 44 44 61 66 60 53 66 80 60 38 41 62 76 67 55 49 39 32 37 51 55 48 46 59 68 49 43 65 69 75 91 103 100 52 10 17 21 20 23 20 26 27 25 27 23 24 25 25 29 28 29 30 29 29 28 28 29 28 31 33 38 43 47 52 55 55 55 54 59 66 67 63 58 54 55 58
29 28 26 26 26 28 28 26 26 29 27 24 22 18 21 21 16 40 83 105 95 69 53 53 64 75 66 56 59 60 52 48 53 57 55 54 49 40 36 35 38 43 45 44 47 50 37 41 69 75 86 101 100 102 65 14 15 23 20 23 21 24 25 23 26 22 21 24 23 27 28 29 30 29 28 26 25 25 25 28 30 33 40 44 49 53 54 53 53 56 61 65 67 67 64 59 57
31 31 30 27 27 27 27 29 26 26 28 26 23 20 19 23 18 19 52 91 94 83 81 69 60 67 71 69 73 80 83 80 81 83 79 74 57 41 37 35 33 35 40 40 42 55 48 43 71 87 95 101 99 104 73 19 15 23 21 25 22 24 26 22 24 23 21 22 23 26 28 30 31 29 28 26 23 23 23 24 27 30 35 40 44 47 48 48 48 50 53 56 60 68 74 71 63
31 32 32 30 29 29 27 33 34 28 27 27 25 23 19 20 21 16 27 53 63 74 96 97 83 77 70 66 73 85 92 93 97 100 97 93 79 58 45 40 40 36 37 37 41 60 58 48 76 98 99 100 99 103 81 31 15 22 23 25 23 24 27 23 23 22 20 21 25 28 30 31 31 29 29 28 25 25 24 24 25 27 31 35 37 38 38 38 39 42 46 49 52 57 68 75 71
31 32 34 34 33 32 30 33 35 30 26 27 26 26 24 20 20 19 19 26 30 41 72 97 100 96 88 80 74 77 84 87 92 94 91 88 80 63 45 39 45 43 36 33 37 56 60 55 82 102 99 101 99 101 89 43 16 21 26 26 25 24 25 24 23 22 21 23 27 32 33 34 33 32 33 34 33 30 28 26 25 26 29 31 32 32 30 29 31 34 39 44 46 47 54 64 69
32 33 34 36 35 34 33 30 30 29 28 28 28 27 28 25 22 22 20 21 20 17 32 70 99 103 97 94 89 84 76 69 73 82 82 77 69 59 45 37 43 44 37 31 32 49 54 52 81 103 98 100 100 100 96 60 23 19 24 26 26 24 24 25 24 23 22 23 28 33 35 36 35 33 35 38 38 37 35 32 29 28 29 30 31 31 29 28 30 33 37 42 41 40 44 52 59
35 35 34 35 35 34 34 32 30 30 30 30 31 29 29 28 26 24 21 19 22 19 14 32 70 97 102 96 94 97 88 66 53 58 71 71 58 49 42 34 38 42 39 32 28 39 45 47 79 104 99 100 101 99 102 83 44 20 20 25 26 26 25 25 26 27 25 23 25 28 31 35 35 32 33 35 36 37 36 35 33 29 28 29 30 30 29 30 31 33 37 42 40 35 40 46 48
42 41 37 35 36 36 35 35 34 31 31 31 32 31 31 30 28 27 26 22 18 22 19 15 30 63 92 99 93 93 98 91 70 56 70 82 67 51 40 31 34 39 39 35 29 31 32 41 79 105 99 99 102 98 101 100 68 29 18 23 24 26 27 26 27 28 28 26 24 24 27 31 34 33 33 33 34 36 37 36 34 31 29 29 29 29 30 31 31 33 36 42 41 37 39 44 44
50 50 46 41 38 38 38 37 37 35 33 32 31 30 31 32 30 28 30 28 20 19 22 20 17 23 52 83 93 89 89 100 99 82 82 93 84 69 54 38 33 34 37 40 35 30 24 34 76 107 101 97 103 99 98 103 81 37 18 23 24 25 29 29 29 28 28 29 26 26 29 30 34 35 35 35 35 36 38 37 35 34 32 31 31 30 30 30 30 30 33 38 41 40 40 42 45
51 54 55 52 44 39 39 37 38 37 35 34 32 30 31 33 31 29 29 28 24 22 19 21 22 16 20 41 65 80 80 86 100 100 96 98 91 78 68 59 47 34 35 44 40 31 23 29 69 106 105 97 102 102 100 105 93 55 32 28 23 25 29 28 30 31 29 29 28 28 30 32 35 36 36 37 36 35 36 36 37 37 35 33 31 30 30 30 30 28 29 33 37 39 41 43 48
49 52 55 59 56 48 43 39 37 36 35 36 35 31 31 33 30 28 30 29 26 25 22 18 21 22 20 19 27 44 53 58 77 92 98 102 99 90 82 84 79 54 40 42 38 31 24 29 64 101 105 96 100 105 101 100 98 83 69 52 28 23 31 29 29 29 28 29 29 29 30 32 33 35 36 36 35 36 36 37 38 39 39 39 36 35 34 31 31 31 31 32 34 36 40 43 47
Wind_Speed
2 2 2 3 4 4 4 5 5 4 4 4 5 6 7 8 8 8 9 10 10 10 11 12 13 15 17 19 21 19 18 19 21 22 21 20 18 14 9 4 4 12 17 16 15 16 18 17 16 15 14 15 14 12 11 11 10 10 10 11 13 13 12 10 10 14 18 18 18 17 17 18 20 22 24 25 25 25 24 24 23 22 22 21 21 21 22 21 21 21 22 23 23 24 24 24 24
4 3 3 4 4 3 2 2 2 2 3 3 4 5 6 6 6 7 8 8 9 10 10 10 11 13 16 19 22 20 19 20 21 22 23 21 18 14 8 3 3 9 15 15 14 16 17 16 16 15 13 13 13 12 12 12 13 11 10 13 15 15 14 12 12 15 18 18 18 19 20 22 24 24 24 23 22 21 20 20 20 21 21 21 21 20 20 19 20 21 22 23 24 24 25 25 26
6 5 4 4 4 4 3 2 2 2 1 1 2 4 4 5 4 5 6 7 7 8 9 10 10 12 15 18 21 21 20 22 22 24 24 22 19 15 10 4 1 6 10 11 14 16 16 16 17 16 13 13 13 13 12 11 14 12 12 15 15 15 14 12 13 16 18 20 21 23 25 26 25 23 21 20 18 17 17 18 18 19 19 19 18 18 18 18 19 20 22 23 23 24 25 26 27
8 7 6 5 4 5 5 5 4 3 2 1 1 2 2 4 4 4 4 5 6 7 9 10 10 12 13 16 20 21 21 23 24 25 25 23 20 15 11 7 3 2 6 9 13 16 15 16 17 15 13 13 13 14 14 13 15 13 12 14 14 14 14 13 14 17 20 22 24 26 27 26 23 20 18 17 16 15 15 15 16 17 17 16 16 17 18 18 19 21 22 23 23 25 26 27 28
10 9 7 6 5 5 6 6 6 4 3 3 1 1 1 2 3 3 2 3 4 5 8 10 11 11 13 15 18 20 21 23 24 25 26 24 21 17 13 10 6 2 3 7 13 15 14 15 15 15 14 13 13 15 15 15 15 14 13 12 12 13 13 15 17 19 22 24 24 25 24 22 19 17 15 15 14 13 13 14 15 15 15 15 16 18 18 19 21 22 22 22 23 25 26 27 28
12 11 9 7 6 6 7 7 7 6 5 5 2 1 1 1 1 2 1 2 2 4 7 9 10 11 13 14 17 19 20 23 24 26 27 26 23 19 16 12 8 5 4 6 11 13 13 14 16 16 16 15 16 15 14 15 15 15 13 12 12 13 14 18 21 22 22 21 22 21 19 16 14 13 12 12 12 13 13 13 14 14 14 16 17 18 20 21 21 21 22 22 23 25 26 27 29
13 13 11 9 8 7 8 8 8 8 7 7 5 3 3 2 2 1 0 1 0 3 7 8 9 11 13 14 16 18 20 23 24 26 27 27 25 22 18 13 9 6 6 5 8 11 11 13 16 18 17 18 17 14 13 14 14 13 12 13 14 14 16 20 22 20 19 19 19 16 13 11 10 10 11 11 11 12 12 13 14 15 16 17 19 20 21 21 21 22 22 23 24 26 27 28 29
15 14 13 11 10 9 9 9 10 10 9 9 8 7 6 4 3 3 2 1 1 3 6 9 9 11 13 13 15 18 20 23 24 26 27 27 25 23 19 14 10 6 5 6 6 9 10 12 15 17 17 17 16 15 14 12 11 12 12 14 15 14 15 20 21 18 18 18 16 13 10 8 9 12 12 11 11 12 13 14 14 15 17 18 20 20 20 21 21 22 23 24 25 26 27 28 29
16 16 15 13 12 11 10 11 11 11 11 11 10 10 8 6 4 4 4 3 2 3 5 8 9 10 12 13 14 18 20 22 23 24 26 27 25 23 20 16 11 7 5 6 7 7 10 12 14 15 15 16 15 15 13 11 12 13 14 15 15 14 16 19 19 17 18 18 16 13 10 8 10 12 11 11 11 13 14 14 15 16 18 19 20 20 20 21 22 22 24 25 25 25 27 29 30
18 17 16 15 14 13 12 12 12 11 11 12 12 12 10 8 6 5 5 5 3 3 5 7 8 9 11 12 14 17 20 21 22 23 25 26 25 24 22 19 13 9 5 5 7 6 7 10 14 16 16 15 14 13 13 13 14 16 16 15 14 14 15 17 18 19 20 20 16 14 12 10 11 11 11 12 13 15 15 16 16 17 19 19 19 20 21 21 21 23 24 24 25 26 28 29 27
20 19 18 17 16 14 13 13 13 12 12 12 13 13 11 9 8 7 6 6 4 3 4 6 7 8 10 12 13 16 18 20 21 22 23 25 26 25 24 22 16 11 6 5 7 6 4 5 11 14 15 14 13 13 13 14 15 15 16 15 14 15 15 17 19 20 20 19 16 15 15 14 13 13 13 14 15 16 16 16 17 18 19 19 19 20 20 20 21 22 23 24 26 27 27 24 20
21 21 20 19 17 15 14 13 13 13 13 13 13 13 11 9 9 9 8 7 6 5 5 6 7 7 9 12 13 14 17 19 19 20 22 25 26 25 24 23 19 13 8 5 6 6 4 3 8 10 10 12 13 14 13 15 16 15 15 15 15 15 15 17 18 19 19 19 16 15 15 15 14 13 13 14 15 15 15 16 17 18 17 18 18 19 19 20 21 22 24 25 26 24 21 17 12
22 22 22 21 19 17 15 14 14 13 14 14 14 14 12 11 11 10 10 8 8 7 5 6 7 7 8 11 12 13 15 17 18 19 21 24 25 25 24 22 20 17 11 5 5 6 6 5 8 9 9 11 14 15 15 16 17 17 16 15 15 16 16 17 18 19 19 18 17 16 15 14 13 12 12 13 14 14 14 15 15 15 16 17 18 18 19 20 21 23 25 24 22 18 13 9 6
25 24 24 23 21 19 16 15 14 13 15 16 15 14 12 12 11 10 10 9 9 8 7 7 7 7 7 10 12 12 14 16 16 18 20 22 23 23 23 22 20 18 14 8 4 6 8 8 9 10 10 13 15 15 18 19 18 17 16 16 16 16 16 17 19 20 19 18 18 17 15 14 12 11 11 12 13 13 14 14 14 14 16 17 17 18 19 20 22 23 22 19 15 11 7 5 5
28 26 25 25 23 22 19 16 15 14 16 17 16 15 13 13 13 11 11 10 9 9 9 8 7 7 7 9 11 11 13 15 15 17 19 21 22 22 23 22 21 19 17 12 6 4 8 11 13 12 12 14 14 15 17 19 18 17 16 16 15 15 14 16 19 21 19 18 19 18 16 14 12 11 11 12 13 14 15 14 14 15 16 15 16 18 20 21 21 20 17 13 10 6 4 4 5
30 29 28 27 25 24 21 19 17 15 18 18 17 16 14 15 14 13 12 11 11 10 10 9 8 7 7 8 10 10 12 14 14 16 18 19 20 21 22 22 21 19 17 15 11 4 5 11 15 17 17 17 17 16 16 17 16 16 17 16 15 14 14 16 20 20 18 17 19 19 17 14 12 11 11 13 14 15 15 15 15 15 14 14 17 19 20 19 17 15 12 9 6 5 4 4 6
33 33 31 29 27 26 24 22 19 17 19 21 19 18 16 16 16 15 14 13 12 12 11 11 9 8 8 8 9 10 11 13 14 15 17 17 18 19 20 21 21 20 18 16 13 10 3 5 13 17 20 20 19 17 16 16 15 16 17 17 15 13 13 17 20 20 18 18 19 19 16 14 12 11 12 14 15 15 15 15 15 15 14 16 18 18 17 15 13 11 8 6 5 5 4 7 9
36 35 34 32 30 28 27 25 23 22 23 23 21 19 18 17 16 16 15 14 14 13 12 12 11 9 8 8 9 10 10 12 13 13 15 16 16 18 19 19 20 21 20 17 15 12 9 2 6 13 18 20 20 19 17 16 16 16 17 17 16 13 13 17 20 20 19 19 20 19 16 14 13 12 14 15 15 15 14 15 15 15 16 17 16 16 14 11 9 7 5 5 4 5 7 11 12
37 37 36 35 33 31 29 28 27 26 26 25 22 20 20 19 17 16 16 15 16 15 14 13 13 11 9 9 9 9 9 10 11 12 14 15 15 17 18 18 19 19 20 19 16 14 11 8 3 8 14 18 20 20 18 17 16 17 17 17 15 11 13 18 21 20 20 20 21 19 16 14 12 12 14 15 14 13 14 15 15 15 15 14 14 14 11 8 7 5 4 4 5 8 10 12 12
39 39 38 37 36 34 32 30 30 29 28 27 25 23 22 21 19 18 17 16 17 17 16 15 13 13 11 10 9 9 8 8 10 11 13 14 15 16 17 18 18 18 19 19 18 16 14 10 7 4 9 14 18 19 19 19 18 18 18 16 13 11 14 19 22 20 20 21 20 18 15 12 10 12 13 14 13 13 14 16 14 13 13 12 13 11 8 6 5 4 3 5 8 10 10 10 11
40 40 39 39 38 37 35 33 32 32 31 29 28 26 24 23 22 21 18 17 17 17 17 16 14 13 12 10 10 9 8 7 9 10 12 14 15 16 17 17 18 17 18 19 19 18 16 14 11 7 5 10 15 19 20 20 20 19 18 17 13 12 15 18 20 20 21 21 18 16 13 10 10 12 12 13 12 13 15 14 12 11 11 10 10 8 6 4 4 3 5 8 10 10 10 9 9
41 41 41 40 39 39 37 36 35 34 33 32 30 29 26 25 24 23 20 18 18 18 17 16 15 14 13 11 11 10 8 7 8 10 11 13 14 15 16 16 18 18 17 18 19 19 19 18 16 11 7 7 10 15 19 20 20 19 18 17 16 16 17 19 20 21 21 19 16 14 12 10 10 11 12 12 13 15 14 11 10 10 9 10 9 6 4 4 5 4 7 9 9 9 8 7 7
42 42 42 41 40 40 38 37 37 36 35 34 33 31 29 27 26 25 23 21 20 20 18 17 17 16 15 13 12 11 9 7 7 9 10 12 14 15 16 16 18 19 17 18 19 20 20 21 21 18 12 8 7 9 14 18 19 18 17 16 17 18 20 21 21 21 19 15 14 12 10 9 10 11 11 11 13 14 11 9 9 10 9 9 7 4 3 6 5 5 8 9 8 7 6 6 7
42 42 43 42 41 41 39 38 38 37 37 36 34 34 32 30 29 27 26 25 24 22 20 19 18 18 17 15 13 13 11 8 8 9 10 10 12 15 16 16 18 20 19 18 18 20 20 21 23 22 18 12 9 9 10 14 18 18 17 16 17 19 21 21 19 17 14 12 11 11 9 8 10 12 11 11 12 10 8 9 10 9 9 7 4 3 5 7 6 6 7 6 6 5 5 6 7
42 43 42 42 41 42 40 39 39 37 37 37 36 35 35 33 31 29 28 27 26 25 23 21 20 19 18 16 14 14 12 10 9 10 10 10 11 14 16 16 17 18 20 20 19 20 21 21 22 23 22 17 13 10 9 11 15 18 17 16 18 19 18 16 14 12 10 10 10 9 8 8 11 12 11 12 10 6 8 10 9 8 6 4 3 5 7 7 6 5 5 5 5 5 6 7 8
42 42 42 42 42 43 42 41 40 39 38 38 36 36 36 35 33 31 31 29 28 27 25 22 21 20 19 17 15 14 14 11 10 10 10 10 10 13 15 16 17 17 20 20 19 21 23 23 23 24 24 21 17 12 9 9 12 16 16 16 17 16 13 13 11 9 8 8 9 8 8 9 11 11 12 11 6 5 9 9 6 5 5 5 5 7 8 7 6 5 4 4 4 5 5 6 7
41 42 42 43 43 44 44 43 42 40 39 39 38 37 37 35 35 34 33 32 31 29 27 24 22 21 20 19 16 15 15 13 11 11 10 10 10 12 14 15 16 17 19 20 19 21 23 25 25 25 25 25 21 15 11 8 10 14 16 16 15 12 11 12 11 8 8 8 8 8 9 10 10 11 12 8 4 6 7 5 4 6 6 6 7 8 8 6 5 5 4 4 4 4 4 6 7
39 40 42 44 44 44 44 44 43 42 41 41 40 39 37 36 35 36 35 34 33 31 28 26 25 23 22 21 18 16 15 14 12 12 11 10 10 11 13 15 16 17 19 19 20 20 23 25 26 27 27 28 25 18 13 8 7 12 15 15 13 11 12 12 10 8 8 8 8 8 10 9 10 12 9 5 5 5 3 3 5 7 8 8 9 8 8 7 6 6 5 3 3 5 6 8 9
37 38 40 41 42 43 45 45 44 44 43 42 42 40 39 38 36 36 36 35 34 32 29 27 26 26 24 22 20 18 16 15 14 12 11 10 10 11 12 15 16 17 18 19 20 20 22 25 27 28 29 31 28 20 14 8 6 9 14 15 12 11 12 11 9 8 7 7 8 9 9 9 10 10 6 5 4 2 3 5 7 8 9 10 10 10 9 8 8 6 5 5 7 9 11 12 13
34 36 36 35 36 40 44 46 45 45 44 44 43 42 42 41 39 38 36 36 35 33 29 27 26 26 25 24 22 20 17 15 15 14 13 11 11 11 12 15 16 18 18 19 20 21 22 24 26 29 30 32 30 21 14 8 4 7 12 14 12 11 12 10 8 7 6 7 8 9 10 9 9 7 4 3 2 5 6 8 10 10 11 11 11 11 10 10 10 9 8 10 12 14 15 16 16
32 33 34 34 34 36 40 45 46 46 46 45 45 44 43 42 41 40 38 37 36 35 32 29 27 25 24 24 23 21 18 17 16 15 14 13 12 12 12 14 17 18 18 19 20 21 23 25 26 29 31 33 31 22 14 9 2 5 9 13 13 12 12 10 8 7 7 7 8 9 10 9 6 4 2 4 7 8 10 11 12 12 12 12 13 14 14 14 14 14 14 15 16 17 17 18 19
30 31 33 35 35 34 37 43 46 46 46 46 45 45 44 43 42 43 41 39 38 37 35 33 31 28 26 25 24 21 19 19 17 16 15 14 13 13 13 14 16 17 17 18 20 22 23 25 27 28 32 34 31 22 15 10 2 3 7 10 11 10 11 10 8 7 8 8 8 8 8 5 3 1 5 8 9 11 12 13 14 14 15 16 17 18 18 18 18 18 18 18 18 18 19 20 21
30 31 33 33 35 35 35 39 43 44 46 46 45 45 44 43 42 44 44 42 40 39 37 35 34 32 31 30 27 24 22 21 18 17 17 16 14 14 14 13 15 16 16 18 20 21 22 24 27 28 31 34 31 22 15 11 3 3 5 6 6 7 9 9 6 6 8 8 8 7 4 1 1 6 10 11 11 12 14 16 17 18 19 20 20 19 18 18 18 18 18 19 19 20 20 21 21
30 31 33 33 34 35 33 34 38 41 44 44 43 44 44 43 41 43 45 43 41 40 38 37 36 34 32 31 29 28 27 24 21 20 19 17 16 16 15 14 14 14 15 17 19 20 21 23 26 28 30 34 30 21 15 11 3 3 5 6 6 6 8 7 5 7 8 7 6 4 1 3 6 10 12 12 13 15 18 19 21 21 21 20 19 18 17 17 17 17 19 20 20 21 21 22 21
30 31 32 32 34 35 35 35 36 37 40 43 43 43 43 42 43 43 43 43 41 39 38 36 35 34 32 31 30 27 27 26 23 22 21 20 19 17 15 14 14 13 14 16 18 18 19 21 24 27 29 32 29 20 14 11 4 3 5 7 7 7 7 6 5 6 6 5 4 3 5 8 11 12 12 14 17 19 20 22 22 22 21 20 20 20 20 20 20 21 22 23 23 23 23 23 23
29 30 31 32 32 34 34 36 36 33 34 39 41 42 42 41 42 42 41 41 40 40 38 36 35 33 31 30 25 22 24 26 25 22 21 21 19 17 15 15 14 13 13 16 17 17 18 19 23 26 27 31 30 20 14 11 5 2 6 7 6 7 6 5 5 5 4 4 6 7 10 13 13 12 15 18 19 20 21 22 23 22 22 23 24 26 26 27 27 27 28 27 27 27 27 27 26
27 29 30 31 32 33 33 34 36 34 32 33 36 39 41 41 39 37 38 39 39 39 37 34 34 32 29 27 26 26 29 30 27 23 22 22 20 18 17 15 14 14 13 15 16 17 18 18 20 23 25 29 29 21 13 10 5 1 5 6 6 6 6 5 5 5 4 7 10 12 14 15 14 15 18 19 20 21 22 23 24 25 27 29 30 31 32 32 33 33 33 32 31 31 30 30 29
25 27 29 30 31 32 32 32 34 35 35 36 35 35 36 39 37 34 36 37 38 37 35 34 33 33 33 32 32 34 33 32 30 28 28 27 25 22 19 17 15 15 14 15 16 16 16 16 18 21 24 28 29 22 14 10 6 3 5 6 6 7 6 5 5 5 8 12 14 16 17 17 17 18 19 19 20 21 23 24 27 29 30 31 33 35 36 37 38 38 37 37 36 35 35 34 35
23 26 27 29 30 31 32 32 33 34 35 37 38 37 35 38 37 34 34 35 35 36 36 36 36 36 37 36 37 36 34 33 32 30 31 29 26 23 20 18 16 15 14 14 15 16 15 14 15 19 21 25 29 25 16 10 6 4 5 6 7 6 5 5 5 9 13 16 17 18 17 18 19 20 19 20 21 23 25 27 30 31 31 33 35 36 38 39 40 41 41 40 39 39 38 38 39
20 23 25 27 29 31 31 32 32 33 34 35 37 40 40 40 38 36 35 35 35 36 36 37 37 36 36 36 37 36 35 35 31 29 30 29 26 23 20 18 16 14 13 13 13 15 14 13 12 16 19 22 27 28 20 10 5 3 5 6 6 6 6 7 10 13 16 17 18 17 18 19 20 20 20 20 22 25 27 30 31 31 32 34 36 37 38 38 38 39 39 39 38 38 38 39 39
18 20 23 26 28 30 31 32 32 33 34 35 36 39 40 41 41 41 41 39 36 36 37 37 37 37 36 36 36 35 33 31 31 30 30 29 25 23 21 18 16 14 13 13 12 13 13 12 11 13 18 22 24 27 24 13 5 2 5 6 7 8 11 14 15 16 17 17 17 17 18 19 19 20 21 22 25 27 29 30 30 31 32 35 36 36 36 35 34 33 33 32 33 34 36 36 36
17 18 20 23 26 28 30 31 32 33 34 35 36 38 40 42 44 44 45 42 36 34 38 39 38 37 37 37 36 34 32 30 32 33 31 29 26 24 22 19 17 15 13 12 12 12 13 12 11 13 18 21 20 22 24 15 5 1 5 8 10 13 17 19 18 17 16 17 18 18 18 18 19 20 22 24 26 28 29 29 30 31 33 34 34 34 33 32 31 31 30 30 31 33 34 35 35
17 18 20 21 23 26 28 29 31 33 33 34 36 38 39 42 45 45 44 44 39 36 40 41 40 38 36 36 35 32 32 34 34 33 29 28 27 25 23 20 18 17 14 12 12 12 12 10 8 11 17 18 16 17 21 15 6 0 5 10 14 17 19 20 18 18 18 18 18 18 19 19 20 21 22 25 26 27 29 29 30 31 32 32 32 32 31 30 30 30 31 31 32 33 33 33 34
17 18 20 21 22 24 26 28 30 32 32 33 35 37 38 40 44 44 44 45 43 40 43 45 41 37 33 35 35 31 32 34 34 32 29 29 28 26 24 21 20 18 16 14 12 11 12 11 8 10 13 13 14 16 17 13 5 1 6 12 16 19 20 19 19 20 20 19 19 19 20 21 22 22 23 23 25 26 28 28 30 30 30 30 30 30 29 28 28 29 30 31 31 32 31 31 32
18 19 19 20 21 23 24 26 28 30 32 33 34 36 37 39 41 43 44 48 48 44 45 48 44 37 34 35 37 35 34 35 35 33 31 31 30 29 26 22 21 20 19 17 14 12 13 11 10 11 10 10 13 15 14 8 3 2 7 13 17 19 20 20 20 21 20 20 20 19 20 22 23 23 23 23 24 25 27 28 29 29 29 29 29 28 27 27 27 28 28 28 28 29 29 29 29
15 19 20 20 20 22 23 25 27 29 31 33 35 36 38 40 42 42 43 46 50 48 47 47 45 42 40 39 40 38 36 36 34 33 33 32 32 31 27 24 23 22 21 20 17 14 13 11 10 11 9 9 12 13 10 4 1 3 7 12 16 18 19 19 19 19 20 21 21 20 21 22 23 23 23 23 24 25 26 27 28 28 27 27 27 27 26 26 26 26 25 24 25 26 26 26 26
10 14 19 21 20 21 22 24 26 29 32 34 35 37 38 41 43 44 43 43 47 49 48 46 44 45 45 44 43 41 39 38 37 35 34 34 33 32 29 27 26 25 24 22 18 15 15 12 11 11 8 8 11 12 9 2 3 6 8 10 14 16 17 17 18 18 20 22 22 22 22 22 22 22 23 23 24 25 26 27 27 26 26 26 26 26 25 24 24 23 22 22 22 23 23 22 23
9 10 14 18 21 21 22 23 26 28 31 33 35 37 38 41 43 45 46 45 45 45 47 47 45 45 47 47 47 45 41 41 42 41 38 36 35 34 32 30 29 28 26 22 18 16 16 13 12 11 9 7 10 12 8 1 4 7 9 11 12 14 14 15 16 18 21 22 23 22 22 22 21 22 22 23 24 25 26 26 26 25 25 24 24 24 23 23 22 21 20 19 20 20 20 20 20
12 11 11 14 19 22 22 23 25 28 30 31 34 37 39 41 42 44 47 48 47 44 43 46 47 46 46 46 46 44 41 40 41 42 40 39 38 36 34 32 30 29 27 24 21 19 16 14 12 11 9 8 9 12 8 2 6 7 9 11 12 13 13 14 16 17 20 22 23 23 22 21 21 21 22 23 24 25 25 25 25 24 23 23 22 22 21 20 20 19 17 17 17 17 17 17 18
12 12 11 11 14 19 23 24 25 27 29 31 33 35 38 41 42 43 46 50 49 45 42 43 45 46 47 46 44 42 40 40 40 40 40 40 39 37 35 33 31 30 29 26 23 21 17 15 13 12 12 11 11 13 9 5 8 9 10 10 11 12 12 14 15 17 20 22 23 22 22 21 21 21 22 22 22 23 23 24 23 23 22 21 21 19 19 18 17 16 15 14 14 15 15 15 16
11 11 12 11 11 14 20 23 24 26 28 30 32 33 37 40 41 42 45 49 50 47 45 45 44 44 45 46 46 45 44 43 43 43 43 42 41 38 35 34 32 31 30 28 25 22 19 17 15 14 15 14 12 12 10 8 10 11 11 11 11 12 12 14 15 17 19 21 22 22 21 20 20 21 21 21 20 20 21 21 21 21 20 19 18 17 17 16 15 15 14 13 12 13 14 14 15
10 10 11 11 11 12 15 19 23 26 27 28 30 32 35 39 40 41 43 47 49 48 48 48 46 44 43 44 45 47 48 47 46 46 45 45 43 41 38 35 34 33 32 29 26 24 22 19 18 16 15 15 14 12 11 10 12 14 14 13 13 12 13 14 15 17 19 21 21 21 20 19 20 21 21 20 19 19 19 19 19 19 18 17 16 15 14 14 13 13 13 13 12 13 14 14 15
9 9 9 10 11 11 12 15 19 24 27 27 28 31 34 37 38 41 43 45 46 48 49 50 50 47 45 43 42 44 48 49 49 48 47 47 46 43 40 37 36 35 34 31 28 26 24 22 21 18 16 16 15 13 12 11 12 16 17 16 15 14 14 15 16 17 19 21 21 19 19 19 20 21 22 21 19 19 18 18 19 19 18 16 15 15 14 13 12 12 13 13 13 13 14 14 14
10 10 9 10 10 11 11 12 14 18 23 27 29 30 32 35 37 39 42 45 45 46 47 50 52 52 50 48 44 42 43 45 46 47 46 45 45 45 43 40 38 37 36 33 31 29 26 25 24 21 18 18 18 16 15 14 14 17 19 19 18 17 16 16 17 17 19 21 21 20 19 19 20 21 22 21 20 19 18 18 18 18 18 17 16 16 15 14 13 13 13 13 13 14 13 12 12
10 10 10 11 11 11 11 11 11 12 15 22 27 30 31 34 36 36 39 43 45 45 46 47 51 54 55 54 51 46 42 42 43 43 42 40 39 40 42 41 39 38 37 35 33 31 29 28 27 25 21 21 21 19 19 18 17 18 19 21 21 20 19 18 18 18 19 21 22 22 21 20 20 21 21 20 20 19 18 17 18 18 17 17 17 17 16 16 15 15 14 14 14 14 13 11 10
9 10 10 11 12 12 12 12 12 11 12 14 20 27 31 33 35 36 38 40 42 44 46 47 48 51 55 57 57 54 49 45 43 42 41 41 39 37 37 38 39 39 38 37 35 33 31 30 31 30 26 24 24 22 21 21 20 19 19 21 22 22 21 21 20 20 20 21 22 23 23 22 21 21 20 19 19 18 18 17 16 16 17 17 17 17 17 17 17 16 16 16 16 15 13 11 10
10 9 10 11 12 12 12 12 12 13 13 12 14 19 26 30 33 35 36 39 41 43 45 46 47 48 51 55 58 59 57 53 50 46 45 45 43 40 38 36 37 38 38 38 36 34 33 33 34 34 31 29 27 25 24 23 21 21 21 21 22 23 23 23 23 22 22 22 23 24 24 23 23 22 21 20 19 19 18 17 16 16 16 16 17 17 18 18 18 18 18 17 17 16 14 12 12
12 11 10 11 12 12 12 12 12 13 13 13 14 15 18 23 29 33 35 37 39 42 44 45 46 48 50 52 54 57 58 57 56 54 51 49 47 44 41 38 37 37 37 39 38 36 35 36 37 37 35 32 30 29 28 24 22 23 24 23 23 24 24 25 24 23 22 23 25 25 25 25 24 24 23 22 21 20 19 18 17 16 16 15 15 15 16 17 18 18 18 18 18 17 15 13 13
Wind_Direction
190 153 156 159 131 97 93 84 70 69 78 78 80 84 83 81 78 75 70 61 54 46 46 45 46 42 38 33 27 27 25 17 11 7 1 355 350 347 330 290 218 240 248 243 232 222 221 221 220 216 213 221 224 231 231 221 221 229 240 247 252 260 270 274 274 280 284 287 285 280 278 277 276 277 280 283 289 293 289 285 289 295 300 302 304 305 304 300 295 289 286 286 288 289 291 290 290
213 200 188 183 171 142 121 96 64 25 58 81 86 84 85 85 86 84 75 64 52 41 39 38 40 37 36 33 28 26 21 13 11 11 7 5 1 357 350 323 189 220 237 236 228 221 217 214 217 216 213 215 217 230 233 227 229 228 235 247 255 264 270 269 266 269 273 278 282 284 285 284 283 283 285 289 294 295 288 283 288 295 300 303 305 305 302 297 293 290 289 289 290 291 290 290 289
222 218 210 197 188 194 213 201 216 305 -0 89 90 86 83 84 86 85 78 68 55 39 32 29 30 31 33 31 29 26 18 12 12 13 13 12 9 4 360 353 184 213 228 229 222 218 215 211 215 217 212 210 215 225 222 226 237 229 229 246 259 268 269 271 271 268 272 276 279 284 287 288 288 289 292 294 296 296 290 286 290 296 299 300 301 300 297 294 292 291 291 291 291 291 290 290 290
230 227 224 215 199 201 218 219 222 257 262 216 95 93 90 84 84 84 80 69 56 39 26 23 22 24 32 30 30 27 17 15 15 16 18 16 15 10 5 3 8 221 217 216 212 208 209 211 214 215 210 212 217 218 212 219 235 237 237 251 264 269 273 283 283 275 276 277 279 283 286 288 289 293 295 295 295 296 294 293 296 297 298 298 297 296 295 293 292 292 292 291 291 290 289 290 292
234 233 231 226 219 212 220 225 221 227 228 214 153 134 131 102 92 84 86 75 54 32 17 18 16 18 28 30 31 27 18 16 17 19 21 20 20 16 12 11 19 45 167 196 210 206 203 209 210 209 208 216 221 215 216 223 232 238 243 257 269 275 285 289 288 283 278 276 281 285 287 290 292 295 296 294 295 299 302 302 301 299 297 295 294 294 294 293 293 294 292 291 290 289 291 293 295
234 236 234 230 229 226 229 228 218 212 214 212 201 191 204 216 137 94 84 85 54 13 4 13 11 12 24 28 31 29 21 19 18 21 23 23 23 21 20 18 27 48 90 168 215 217 206 211 209 206 206 216 223 218 223 231 233 239 250 267 273 281 290 290 287 281 278 283 289 291 292 294 296 298 297 298 300 303 307 306 302 297 294 293 293 294 294 294 293 292 290 289 290 293 296 297 297
234 235 235 232 232 232 231 230 224 218 214 213 215 225 235 263 275 286 43 89 60 338 355 8 4 7 21 24 28 28 24 21 20 22 24 25 25 24 25 24 32 47 74 131 214 233 221 214 210 210 210 216 222 221 229 237 242 253 266 275 276 283 289 286 282 280 290 298 299 298 299 303 306 304 303 306 306 307 306 303 298 294 291 291 293 294 295 294 292 289 289 292 296 300 300 300 301
235 234 235 234 234 234 233 232 232 229 223 219 226 238 242 255 282 288 292 316 282 314 352 7 1 4 17 22 25 27 25 23 21 23 25 26 26 26 28 29 35 44 69 118 190 240 240 228 219 218 218 221 223 222 229 236 250 265 271 274 275 278 281 280 278 289 305 306 302 302 302 302 300 298 303 308 309 309 304 299 295 291 289 290 293 295 295 293 290 290 294 299 303 303 303 305 308
237 236 235 234 234 233 233 233 234 235 230 227 234 241 239 241 257 274 283 282 289 315 342 3 4 5 15 19 22 27 26 22 22 23 25 27 28 29 31 33 40 49 65 114 155 216 239 239 230 221 218 221 225 226 231 236 245 259 267 270 268 265 273 277 281 300 313 312 304 298 297 288 283 290 300 307 309 307 301 297 292 289 289 291 295 296 293 291 291 296 301 305 305 305 307 309 311
237 237 235 234 235 233 231 234 235 236 234 234 239 243 240 237 245 257 272 276 286 308 323 348 0 6 15 18 17 23 25 22 21 22 25 28 29 31 33 35 41 55 73 110 132 184 221 235 231 221 220 219 222 231 237 239 244 254 263 263 262 265 272 275 286 303 313 313 302 290 291 289 288 295 301 305 305 302 299 296 292 289 290 293 297 295 292 294 298 304 307 308 308 309 310 311 311
235 237 236 234 236 234 232 234 234 236 237 238 240 246 248 241 241 248 260 270 274 285 306 328 348 3 14 16 13 18 22 20 20 21 25 28 29 31 33 36 38 50 75 111 132 167 185 215 227 221 229 231 230 239 243 245 248 253 258 259 264 269 271 278 289 300 310 311 302 291 288 291 295 298 302 303 301 301 300 296 293 290 291 295 296 294 296 302 307 309 311 311 311 310 309 310 310
235 236 236 235 236 236 233 234 235 235 239 241 242 249 253 245 243 247 250 262 265 267 293 313 336 359 12 14 11 14 17 17 19 21 25 27 29 30 31 37 38 45 65 106 141 164 158 187 222 216 229 237 235 239 241 248 253 253 253 258 266 268 271 284 293 300 309 310 304 297 291 293 296 300 303 303 304 305 302 298 294 292 293 296 297 298 304 310 312 314 314 312 310 308 309 309 310
236 235 236 235 235 235 233 234 236 237 242 243 244 249 253 248 245 245 245 255 259 259 280 305 328 350 8 11 10 11 13 13 15 20 25 27 28 29 30 35 39 43 53 83 138 167 169 192 226 216 214 225 232 236 238 247 252 250 251 258 264 267 273 287 294 299 308 310 306 301 296 296 298 304 306 306 309 306 303 300 298 298 296 295 298 305 310 312 315 315 313 310 309 310 312 313 316
237 236 235 234 233 235 233 232 233 236 245 246 245 248 250 248 244 243 242 248 253 255 269 295 317 335 358 6 8 10 11 10 12 20 24 26 27 28 29 32 36 42 48 60 115 173 179 188 219 227 223 227 231 231 235 241 243 244 252 259 263 267 275 286 292 296 303 308 306 301 299 299 304 306 305 308 305 301 301 302 302 298 293 296 304 309 311 315 316 314 312 312 315 319 324 329 343
239 237 235 234 232 233 232 232 230 231 242 247 247 246 245 246 243 240 241 244 249 251 261 283 306 323 344 358 5 8 10 10 11 20 24 24 24 26 28 30 32 37 44 51 70 161 190 190 205 220 225 229 229 227 232 236 237 245 252 257 263 270 279 289 294 295 300 304 303 300 300 301 303 301 302 302 298 300 302 304 304 296 296 303 308 310 312 316 316 315 316 320 328 337 348 356 14
239 238 236 234 232 231 231 231 229 231 241 244 244 243 243 245 244 245 247 246 247 248 256 274 294 312 332 348 359 4 10 12 11 19 24 22 22 23 26 28 30 33 38 44 51 76 194 203 208 216 221 226 230 235 236 233 237 247 251 253 260 272 284 289 289 291 294 299 300 297 297 300 298 293 294 295 298 302 306 308 302 299 304 308 308 310 314 317 318 319 324 332 345 356 3 24 49
238 238 238 236 232 230 230 230 227 228 240 244 242 240 240 244 247 249 250 248 247 248 254 268 284 302 323 340 351 358 8 14 13 18 23 22 20 21 24 26 28 30 32 36 41 49 66 215 219 223 227 230 233 239 237 233 239 246 251 254 256 270 285 286 286 286 290 297 297 294 295 294 288 288 292 295 300 305 310 308 303 305 309 307 308 311 316 321 323 327 336 349 356 3 33 68 76
237 237 237 237 234 230 228 229 227 223 232 239 238 237 237 240 246 247 248 247 247 249 255 265 277 289 313 332 342 350 4 15 15 17 22 22 20 19 20 22 25 28 29 31 33 37 40 32 235 234 234 236 236 238 236 235 240 246 254 255 253 264 282 286 286 286 289 296 296 294 296 290 283 286 292 296 301 308 311 307 307 311 308 307 309 314 323 329 333 343 358 4 12 46 79 91 87
238 238 237 237 236 232 229 229 229 227 229 234 235 235 234 237 241 243 245 246 247 250 255 263 272 280 300 322 332 341 356 13 14 15 19 19 19 17 15 17 20 25 28 28 27 27 29 27 338 255 245 242 240 239 238 237 237 240 248 251 252 264 274 278 281 285 289 293 296 299 298 294 288 287 289 293 302 309 309 308 312 311 308 312 313 321 334 338 350 14 22 33 72 88 93 95 96
239 239 237 236 236 234 231 229 230 230 231 232 234 234 233 234 237 240 242 245 248 252 255 261 268 274 289 309 320 331 345 4 10 12 15 13 13 13 12 12 14 19 24 26 25 23 21 17 5 313 263 250 244 244 244 242 240 239 241 244 250 263 270 273 278 281 283 289 298 302 297 291 287 285 287 295 305 309 307 310 314 312 315 320 321 334 346 349 25 56 55 83 98 99 95 86 90
239 239 238 237 236 235 233 231 231 231 232 233 233 233 233 232 234 236 239 245 249 252 256 259 263 268 278 295 308 318 332 350 1 5 10 9 6 7 8 9 11 14 19 22 21 20 19 14 5 347 298 261 249 246 247 247 248 247 242 237 240 252 261 267 273 276 280 288 297 298 293 287 285 288 295 304 309 307 308 313 317 320 327 330 333 349 353 15 75 86 90 101 103 99 92 82 82
239 238 238 238 237 236 234 233 232 232 232 234 234 234 233 233 234 235 236 241 248 251 255 259 260 262 268 281 296 305 317 334 346 353 3 4 -0 1 4 7 8 9 15 19 19 18 16 14 7 356 333 288 262 249 246 246 249 250 243 235 237 244 252 260 269 278 283 288 291 291 292 293 292 297 306 311 310 308 312 320 326 331 337 337 343 358 7 78 102 106 107 108 106 101 93 89 87
239 238 238 238 237 236 235 234 234 233 233 234 235 235 235 234 235 236 234 234 242 250 253 257 258 258 263 272 285 294 302 315 327 337 352 360 356 355 359 3 4 5 8 13 17 17 16 14 10 1 346 321 295 268 251 245 244 245 242 238 242 247 253 258 269 279 282 282 283 288 297 300 298 303 308 311 309 310 318 332 336 336 335 336 349 10 73 109 112 115 116 113 108 102 99 97 93
238 238 238 237 237 236 235 234 235 234 234 235 235 236 236 234 235 237 237 236 239 245 249 253 255 256 259 266 277 285 292 299 310 322 338 353 353 351 356 359 0 3 4 7 12 14 15 15 13 6 355 338 318 296 270 251 243 241 239 236 240 249 258 263 269 274 276 275 280 291 301 302 301 304 307 311 311 313 329 341 338 333 332 342 10 73 110 117 115 116 114 108 101 97 105 99 92
237 238 238 237 237 236 235 234 234 234 235 236 235 236 237 236 235 237 238 239 240 243 245 248 251 255 258 262 271 279 285 289 297 311 326 343 348 349 354 358 359 1 2 3 7 9 11 13 14 10 2 350 332 311 286 261 246 240 238 237 242 248 259 269 270 265 268 274 284 297 301 302 301 303 311 315 314 318 336 339 335 336 351 23 72 106 115 114 106 106 101 90 88 99 103 94 89
237 237 237 237 236 236 235 234 233 233 234 236 235 235 237 237 236 237 238 239 241 242 244 246 249 253 255 259 265 272 278 281 288 301 316 330 340 348 352 356 358 359 358 -0 3 5 7 8 10 10 6 357 343 325 300 269 247 238 236 245 249 246 253 266 262 256 268 280 292 299 301 303 299 307 319 318 315 324 332 335 343 10 45 71 93 108 111 104 95 96 95 95 96 96 93 92 89
235 235 235 236 236 235 235 234 233 232 233 235 235 235 236 236 236 236 237 238 239 241 242 244 247 250 251 255 260 266 272 275 280 291 306 318 330 344 348 350 355 356 354 356 1 4 5 5 5 6 6 1 351 336 315 283 251 232 227 241 248 243 250 255 252 256 271 283 294 301 305 300 297 315 323 317 321 330 332 345 23 56 72 84 95 103 106 99 93 96 103 111 100 88 91 101 99
235 234 234 234 235 235 235 234 233 232 232 233 235 236 236 236 235 235 236 237 239 240 242 244 246 247 248 252 255 260 267 269 272 281 293 308 321 333 341 344 348 351 351 353 357 2 4 4 3 3 2 0 356 344 326 298 253 228 219 228 238 245 251 244 245 260 268 282 294 304 306 300 307 322 323 317 331 337 350 39 65 75 80 87 93 96 98 97 100 109 118 118 98 97 107 113 115
234 233 233 234 235 236 236 234 233 232 232 232 234 235 235 235 235 235 235 237 238 239 241 245 245 244 246 251 253 256 261 263 265 274 283 297 311 320 332 339 342 347 348 349 354 359 2 4 3 1 1 359 356 349 334 312 254 224 213 214 223 239 243 237 246 260 267 285 294 302 303 307 319 322 320 327 344 35 90 82 85 85 81 84 88 91 95 102 112 122 127 116 105 107 113 118 120
233 232 230 232 235 236 235 234 232 232 231 231 232 233 234 235 236 236 236 237 238 238 239 240 240 242 246 251 253 255 257 257 259 266 276 288 301 310 321 333 337 343 347 347 350 355 359 2 3 1 -0 359 357 353 343 326 263 217 207 200 207 228 234 239 253 256 267 287 291 296 300 308 317 317 326 352 77 105 99 96 94 87 82 80 84 92 99 109 117 120 117 110 110 113 118 122 122
232 231 227 225 229 234 236 235 232 231 231 230 230 231 233 234 235 236 236 236 237 236 235 232 233 238 246 250 251 253 255 253 253 259 270 282 293 302 312 326 332 338 344 345 348 352 356 360 2 1 360 359 358 356 351 340 292 206 197 190 198 218 226 241 260 259 270 280 283 293 297 302 306 316 14 102 110 104 99 98 94 87 84 84 88 95 101 107 109 109 110 111 114 117 120 122 123
231 229 226 223 222 226 233 234 232 230 230 230 230 230 231 232 234 235 235 235 236 236 234 231 231 236 243 248 250 252 252 250 251 256 266 278 288 297 305 317 325 332 340 344 346 349 353 357 1 2 1 359 359 359 357 351 336 188 184 185 195 203 215 243 266 272 273 269 277 290 293 292 295 74 117 118 108 101 98 94 93 91 90 91 93 96 99 102 103 105 107 109 113 115 117 121 123
231 229 227 224 221 220 227 233 232 229 228 229 229 229 230 230 232 234 234 233 234 235 235 234 233 236 241 246 250 252 251 249 250 253 263 272 281 292 299 308 318 325 336 344 345 348 352 355 359 3 3 1 359 360 1 358 349 192 177 171 183 191 208 232 246 254 257 259 272 282 278 265 142 129 124 115 103 99 97 95 95 95 94 94 94 95 97 97 99 100 103 106 109 111 115 119 121
231 231 228 225 223 221 222 227 230 229 227 227 228 229 229 228 228 232 234 234 234 235 236 235 235 236 239 243 248 253 253 250 250 254 260 265 274 286 294 301 309 316 329 341 344 347 351 354 357 2 4 3 0 -0 3 1 349 219 190 170 177 186 195 208 214 225 238 251 259 254 188 133 133 129 119 107 102 100 98 98 97 95 94 94 94 95 97 97 98 99 102 105 108 111 115 117 116
231 231 230 226 225 224 221 223 225 227 227 226 226 227 228 228 229 233 236 236 235 235 236 236 236 237 239 244 249 254 254 249 249 255 258 261 269 278 285 292 300 307 322 335 341 345 350 354 356 -0 4 4 2 1 3 3 351 230 195 180 184 184 188 206 213 212 223 235 222 182 135 132 130 123 112 105 104 101 100 100 98 97 95 96 97 97 97 98 98 98 100 102 105 108 111 110 107
231 231 230 228 226 225 223 223 221 221 224 225 225 226 226 227 229 232 235 237 237 236 236 235 235 235 238 243 244 241 243 248 253 253 252 257 266 270 274 282 291 299 314 326 335 342 349 354 356 358 2 4 3 2 3 4 1 219 187 180 181 182 189 208 212 216 223 199 165 143 130 129 125 115 110 108 105 103 102 102 100 99 100 100 98 96 96 95 94 94 95 97 100 103 105 105 104
231 230 230 229 228 226 224 223 221 218 218 218 221 224 224 225 226 228 232 234 235 236 234 231 232 230 229 231 228 227 235 247 253 250 250 257 261 265 269 274 281 289 303 316 328 339 348 355 356 356 1 4 3 3 5 8 16 145 177 175 172 176 185 194 207 216 189 156 142 134 130 128 122 115 113 110 107 106 103 102 103 104 103 101 98 96 94 93 92 92 93 96 98 101 103 103 103
231 230 229 228 227 226 225 223 221 219 216 214 215 217 221 223 221 221 227 231 232 232 228 225 226 227 225 225 227 232 238 244 246 246 250 255 257 261 266 268 272 282 293 306 322 335 345 353 356 356 1 6 6 5 7 14 33 117 158 162 162 168 179 189 196 175 150 142 135 131 129 126 122 118 116 112 110 108 105 106 108 107 104 101 99 97 96 94 93 93 93 95 97 99 100 100 101
230 229 228 227 226 225 224 223 221 220 217 215 214 212 214 217 215 213 220 227 229 229 229 228 227 228 228 227 229 233 236 240 242 245 248 250 255 258 259 262 268 278 287 300 318 331 338 346 357 1 1 5 7 7 7 15 42 114 143 145 152 160 171 171 156 144 138 134 131 130 129 127 124 122 118 116 112 109 109 111 111 108 105 104 102 100 99 97 95 93 93 92 94 95 97 99 99
230 228 227 226 225 224 223 222 220 219 217 215 213 212 212 213 211 207 210 218 224 226 228 228 228 228 227 227 229 231 233 237 239 241 245 247 251 254 254 257 263 272 282 293 310 325 330 333 350 4 1 358 1 4 4 10 37 115 143 137 138 145 141 130 128 132 131 129 128 129 129 128 127 124 121 119 115 113 114 116 113 111 110 108 106 104 102 99 97 95 93 91 92 93 95 97 96
231 229 226 224 224 224 223 221 220 218 216 215 213 212 212 211 211 209 208 213 220 225 226 225 226 227 226 227 229 230 230 234 236 236 241 245 245 249 250 251 253 261 274 285 299 318 328 323 325 344 350 349 352 353 354 1 22 109 147 132 127 128 122 120 122 124 125 126 128 129 129 129 127 125 124 122 119 118 119 119 116 115 115 113 110 108 105 102 99 96 94 93 94 95 96 96 94
232 230 228 225 223 223 223 221 220 218 216 214 213 212 211 210 212 212 212 211 213 225 230 226 226 227 227 228 230 232 227 224 230 235 238 241 242 244 244 243 245 251 264 278 286 303 321 321 313 316 326 338 346 341 341 351 5 88 148 134 130 130 125 123 122 123 129 132 134 135 133 130 128 127 127 126 124 123 124 123 121 120 119 115 113 111 107 104 100 97 96 98 100 101 100 99 97
231 231 229 227 224 223 222 221 220 219 217 215 213 213 212 212 214 213 213 211 208 220 231 229 228 227 228 230 229 232 231 225 229 234 234 236 240 241 239 237 239 244 254 264 273 289 307 308 298 291 299 322 339 331 332 342 350 106 153 144 140 138 133 131 130 136 144 143 141 142 139 135 132 132 132 130 129 129 129 127 126 124 122 118 116 114 111 106 103 101 101 103 105 104 103 102 100
228 229 229 228 225 222 221 220 220 220 218 216 215 214 212 213 216 215 211 210 207 212 225 229 226 223 227 234 228 223 230 235 236 235 231 229 234 238 236 235 236 238 242 250 264 282 292 287 274 272 288 323 337 325 325 333 341 131 158 150 144 141 140 141 144 149 150 147 147 146 142 139 137 136 137 135 134 134 133 132 131 129 125 123 121 118 115 110 107 106 106 107 107 107 106 104 102
227 226 228 228 226 222 220 219 220 219 217 217 215 214 212 209 214 217 214 211 209 209 219 226 223 216 218 231 229 217 218 232 239 239 234 227 229 234 233 233 235 237 240 245 253 261 271 278 270 269 291 325 326 318 320 325 345 130 160 152 145 144 142 144 147 149 150 149 151 149 145 144 142 142 142 140 139 138 138 137 135 133 130 128 125 122 119 114 112 111 110 110 110 110 110 107 106
232 228 226 227 227 224 221 218 218 218 217 217 214 212 212 208 209 216 217 215 213 212 218 224 223 216 212 220 228 223 214 219 229 236 236 230 230 232 231 231 234 236 240 244 246 252 264 273 264 263 280 303 307 317 327 320 112 134 157 154 149 148 146 147 149 150 151 152 153 151 149 148 148 148 147 145 144 143 143 142 140 138 135 132 130 127 124 120 118 115 113 113 113 114 113 111 111
248 234 228 226 226 227 224 220 217 217 217 217 215 212 213 212 209 210 215 219 218 216 219 222 222 219 214 214 224 228 222 218 220 227 233 233 232 233 231 231 232 233 236 240 247 261 272 271 255 251 261 283 297 317 333 322 150 135 153 161 155 152 152 152 153 153 154 154 155 154 153 152 153 154 154 152 150 148 148 148 146 143 140 138 135 132 130 127 125 122 118 116 118 119 118 116 115
276 257 239 230 227 226 226 223 219 219 219 219 217 214 213 215 212 208 209 217 221 220 219 221 221 219 217 217 222 228 229 224 222 225 231 232 232 234 234 232 231 231 233 235 238 249 260 259 248 243 249 274 290 303 320 297 167 145 154 167 160 157 159 158 158 158 158 158 157 157 157 157 158 160 160 159 157 154 153 153 152 149 146 143 140 138 137 136 134 131 126 123 123 125 124 122 121
285 277 262 242 231 227 227 226 223 221 220 220 219 217 215 216 216 211 207 212 221 223 221 221 221 220 221 221 223 226 227 226 225 227 231 232 232 233 235 233 231 231 231 230 229 232 241 243 237 235 243 262 276 283 291 224 184 163 158 167 163 163 166 163 163 164 163 162 162 162 162 161 163 164 166 166 164 161 159 158 157 155 152 149 146 145 144 144 144 142 139 134 131 132 132 129 128
289 281 273 259 243 233 229 228 227 225 222 222 222 220 219 219 218 216 212 213 220 224 223 224 224 223 223 223 222 220 221 222 223 225 228 232 233 233 233 233 233 232 230 227 226 230 237 235 227 230 240 245 256 268 263 208 191 180 168 170 169 170 172 170 169 169 169 167 165 165 165 165 166 167 169 170 169 168 165 164 163 161 159 156 153 152 152 153 153 153 152 149 144 140 140 139 137
299 287 278 271 260 245 236 232 231 229 225 224 223 222 223 223 222 219 216 216 219 221 221 224 227 227 226 225 223 219 217 219 221 222 225 229 232 233 233 233 233 233 231 227 225 229 236 233 224 232 243 239 243 257 249 211 195 188 179 177 177 178 178 175 172 172 174 173 169 168 168 167 169 169 171 172 172 173 172 171 170 168 167 165 164 163 164 164 164 165 165 163 160 152 147 144 144
310 297 289 280 271 259 246 239 234 234 231 227 225 223 224 226 225 223 220 219 220 220 218 219 223 227 228 227 227 224 221 220 221 222 225 227 231 233 234 233 234 233 231 228 223 225 232 231 224 233 243 238 237 242 236 218 199 191 188 186 185 185 184 180 176 176 179 178 175 172 170 171 172 172 174 174 174 176 178 179 178 177 176 176 177 178 177 177 175 174 175 174 173 165 153 146 145
324 312 301 287 274 263 253 244 237 235 234 232 229 224 223 225 226 226 225 223 222 221 219 216 216 220 225 226 228 229 228 225 224 225 227 229 231 233 234 233 233 233 231 228 222 222 228 226 221 228 236 234 231 226 224 221 206 197 194 192 190 191 190 186 182 181 183 185 184 180 176 175 176 178 179 179 180 180 182 185 187 187 186 185 188 190 190 189 185 182 182 182 182 175 162 149 146
332 329 317 301 288 275 263 255 243 235 232 232 232 229 226 226 225 226 228 227 225 223 221 218 216 216 220 223 224 228 232 232 228 227 228 231 232 234 234 233 231 231 230 227 221 221 225 221 218 222 228 229 224 218 223 226 214 204 199 196 195 195 194 192 189 188 188 190 191 190 186 182 180 182 184 185 186 188 189 192 193 194 194 195 196 197 197 196 194 190 189 189 187 181 171 160 154
331 334 330 321 309 298 288 278 266 250 236 230 230 230 230 229 227 226 228 230 229 227 224 222 220 218 218 222 222 222 226 232 233 230 226 226 229 231 232 230 229 229 230 227 222 221 221 216 213 216 220 224 220 214 221 224 215 208 203 199 198 197 196 197 196 195 195 195 196 196 194 192 189 188 189 191 193 195 197 199 200 201 201 203 203 202 201 201 199 198 196 195 193 187 182 178 173
321 327 329 328 321 312 305 295 285 275 260 244 234 230 230 232 230 227 229 230 229 228 227 225 224 222 220 222 224 223 221 224 229 231 226 223 225 227 229 229 227 227 228 228 225 222 220 214 210 212 215 220 218 213 216 220 214 207 204 202 201 199 198 200 201 201 202 202 201 200 199 199 199 198 198 199 201 202 204 207 209 210 209 209 207 205 205 205 205 204 202 201 199 196 196 197 193
305 312 317 322 320 317 311 302 295 287 278 267 252 239 232 232 232 230 229 230 229 229 229 227 226 226 225 224 225 227 226 223 224 226 225 225 226 228 230 230 229 227 226 227 226 223 219 215 210 211 215 217 217 214 214 215 213 208 205 204 203 202 201 201 202 204 206 209 209 207 205 204 204 205 205 207 208 209 210 213 215 216 216 214 211 209 208 209 209 208 207 207 205 205 208 208 202
291 296 303 309 311 313 313 308 301 293 285 278 271 261 246 236 233 231 230 230 230 230 230 229 228 227 228 227 226 227 228 228 226 225 224 225 226 229 230 229 230 229 225 224 226 223 219 216 212 211 216 218 217 216 214 214 215 212 209 206 204 205 205 206 205 205 208 213 215 214 212 211 210 210 210 210 212 214 215 215 215 215 216 216 214 212 210 210 210 210 209 209 210 211 212 210 201